﻿_id,日時,平均風速(m/s),平均風向,最大瞬間風速(m/s),最大風速時風向,気温(℃),湿度(%),10分間移動積算雨量(mm),1時間移動積算雨量(mm),日雨量(mm),累計雨量(mm),日射(日積算)(MJ/m2),日照(日積算)(min),現地気圧(hPa),海面気圧(hPa)
1,2023-09-11T00:00:00,1,北北西,2.3,西北西,23.4,98.3,0,0,8.5,8.5,17.04,347,999.2,1012.6
2,2023-09-11T00:01:00,0.9,北北西,2.1,西北西,23.3,98.3,0,0,0,8.5,0,0,999.2,1012.6
3,2023-09-11T00:02:00,0.8,北北西,1.5,北西,23.2,98.2,0,0,0,8.5,0,0,999.3,1012.7
4,2023-09-11T00:03:00,0.7,北北西,1.5,北西,23.2,98.2,0,0,0,8.5,0,0,999.3,1012.7
5,2023-09-11T00:04:00,0.6,北北西,1.3,北北東,23.2,98.1,0,0,0,8.5,0,0,999.4,1012.8
6,2023-09-11T00:05:00,0.5,北北西,1.3,北北東,23.1,98.1,0,0,0,8.5,0,0,999.4,1012.8
7,2023-09-11T00:06:00,0.5,北北西,1.3,北北東,23.2,98.2,0,0,0,8.5,0,0,999.4,1012.8
8,2023-09-11T00:07:00,0.4,北,1.3,北北東,23.1,98.1,0,0,0,8.5,0,0,999.4,1012.8
9,2023-09-11T00:08:00,0.3,北,1.2,北西,23.1,98.1,0,0,0,8.5,0,0,999.3,1012.7
10,2023-09-11T00:09:00,0.2,静穏,1.2,北西,23,98,0,0,0,8.5,0,0,999.3,1012.7
11,2023-09-11T00:10:00,0.2,静穏,1.2,北西,23,98,0,0,0,8.5,0,0,999.2,1012.6
12,2023-09-11T00:11:00,0.3,北西,1.2,北西,23.1,98.1,0,0,0,8.5,0,0,999.1,1012.5
13,2023-09-11T00:12:00,0.3,北西,1.2,西北西,23.1,98.1,0,0,0,8.5,0,0,999.1,1012.5
14,2023-09-11T00:13:00,0.3,北西,1.2,西北西,23.1,98.1,0,0,0,8.5,0,0,999.1,1012.5
15,2023-09-11T00:14:00,0.3,西北西,1.2,西北西,23,98,0,0,0,8.5,0,0,999.2,1012.6
16,2023-09-11T00:15:00,0.3,西北西,1.2,西北西,23.1,98.1,0,0,0,8.5,0,0,999.2,1012.6
17,2023-09-11T00:16:00,0.3,西北西,1.2,西北西,23.1,98.1,0,0,0,8.5,0,0,999.1,1012.5
18,2023-09-11T00:17:00,0.3,西北西,1.2,西北西,23.1,98.1,0,0,0,8.5,0,0,999.1,1012.5
19,2023-09-11T00:18:00,0.4,西,1.2,西北西,23.2,98.1,0,0,0,8.5,0,0,999.1,1012.5
20,2023-09-11T00:19:00,0.4,西北西,1.2,西北西,23.1,98.1,0,0,0,8.5,0,0,999.1,1012.5
21,2023-09-11T00:20:00,0.3,西北西,1.2,西北西,23.1,98.1,0,0,0,8.5,0,0,999.1,1012.5
22,2023-09-11T00:21:00,0.3,北西,0.8,北西,23.1,98.1,0,0,0,8.5,0,0,999.1,1012.5
23,2023-09-11T00:22:00,0.2,静穏,0.8,北西,23.2,98.1,0,0,0,8.5,0,0,999.1,1012.5
24,2023-09-11T00:23:00,0.2,静穏,0.8,北西,23.2,98.1,0,0,0,8.5,0,0,999.1,1012.5
25,2023-09-11T00:24:00,0.2,静穏,0.8,北西,23.1,98,0,0,0,8.5,0,0,999,1012.4
26,2023-09-11T00:25:00,0.2,静穏,0.8,北西,23.1,98,0,0,0,8.5,0,0,999,1012.4
27,2023-09-11T00:26:00,0.1,静穏,0.8,北西,23.1,98,0,0,0,8.5,0,0,999,1012.4
28,2023-09-11T00:27:00,0.2,静穏,0.8,北西,23.1,98,0,0,0,8.5,0,0,998.9,1012.3
29,2023-09-11T00:28:00,0.2,静穏,1.2,北北東,23.2,98,0,0,0,8.5,0,0,998.8,1012.2
30,2023-09-11T00:29:00,0.3,北東,1.2,北北東,23.3,98.1,0,0,0,8.5,0,0,998.8,1012.2
31,2023-09-11T00:30:00,0.3,北北東,1.2,北北東,23.3,98,0,0,0,8.5,0,0,998.8,1012.2
32,2023-09-11T00:31:00,0.4,北北東,1.2,北北東,23.3,98.1,0,0,0,8.5,0,0,998.8,1012.2
33,2023-09-11T00:32:00,0.4,北北東,1.2,北北東,23.3,98,0,0,0,8.5,0,0,998.9,1012.3
34,2023-09-11T00:33:00,0.4,北北東,1.2,北北東,23.2,98,0,0,0,8.5,0,0,998.9,1012.3
35,2023-09-11T00:34:00,0.4,北,1.2,北北東,23.2,98,0,0,0,8.5,0,0,998.9,1012.3
36,2023-09-11T00:35:00,0.4,北,1.2,北北東,23.1,98,0,0,0,8.5,0,0,998.9,1012.3
37,2023-09-11T00:36:00,0.4,北北西,1.2,北北東,23.1,97.9,0,0,0,8.5,0,0,998.9,1012.3
38,2023-09-11T00:37:00,0.4,西北西,1.2,北北東,23.2,98,0,0,0,8.5,0,0,998.9,1012.3
39,2023-09-11T00:38:00,0.3,西,1.2,北北東,23.2,98,0,0,0,8.5,0,0,999,1012.4
40,2023-09-11T00:39:00,0.3,西南西,1,西南西,23.1,98,0,0,0,8.5,0,0,998.9,1012.3
41,2023-09-11T00:40:00,0.3,西南西,1,西南西,22.9,97.9,0,0,0,8.5,0,0,998.9,1012.3
42,2023-09-11T00:41:00,0.3,西南西,1,西南西,23,97.9,0,0,0,8.5,0,0,998.9,1012.3
43,2023-09-11T00:42:00,0.3,西南西,1,西南西,23.2,98,0,0,0,8.5,0,0,998.9,1012.3
44,2023-09-11T00:43:00,0.3,西,1,西南西,23.1,98,0,0,0,8.5,0,0,998.9,1012.3
45,2023-09-11T00:44:00,0.3,西,1,西南西,23.1,97.9,0,0,0,8.5,0,0,998.9,1012.3
46,2023-09-11T00:45:00,0.3,西,1,西南西,23.2,98,0,0,0,8.5,0,0,998.9,1012.3
47,2023-09-11T00:46:00,0.3,西,1,西南西,23.2,98,0,0,0,8.5,0,0,998.9,1012.3
48,2023-09-11T00:47:00,0.3,西北西,1,西南西,23.1,97.9,0,0,0,8.5,0,0,998.9,1012.3
49,2023-09-11T00:48:00,0.3,西北西,1.2,西南西,23,97.9,0,0,0,8.5,0,0,998.9,1012.3
50,2023-09-11T00:49:00,0.3,西北西,1.4,西北西,23.2,97.9,0,0,0,8.5,0,0,998.8,1012.2
51,2023-09-11T00:50:00,0.4,西北西,1.4,西北西,23.2,97.9,0,0,0,8.5,0,0,998.8,1012.2
52,2023-09-11T00:51:00,0.4,西北西,1.4,西北西,23.1,97.8,0,0,0,8.5,0,0,998.8,1012.2
53,2023-09-11T00:52:00,0.5,西北西,1.5,西北西,23,97.7,0,0,0,8.5,0,0,998.8,1012.2
54,2023-09-11T00:53:00,0.7,西北西,1.7,西北西,23,97.6,0,0,0,8.5,0,0,998.8,1012.2
55,2023-09-11T00:54:00,0.8,西北西,1.7,西北西,23,97.7,0,0,0,8.5,0,0,998.7,1012.1
56,2023-09-11T00:55:00,0.9,西北西,1.7,西北西,23.1,97.8,0,0,0,8.5,0,0,998.7,1012.1
57,2023-09-11T00:56:00,1,西北西,1.7,西北西,23.1,97.7,0,0,0,8.5,0,0,998.7,1012.1
58,2023-09-11T00:57:00,1.1,西北西,1.7,西北西,23,97.7,0,0,0,8.5,0,0,998.7,1012.1
59,2023-09-11T00:58:00,1.1,西北西,1.7,西北西,23.1,97.7,0,0,0,8.5,0,0,998.7,1012.1
60,2023-09-11T00:59:00,1,西北西,1.7,西北西,23.2,97.8,0,0,0,8.5,0,0,998.7,1012.1
61,2023-09-11T01:00:00,1,西北西,1.7,西北西,23.2,97.8,0,0,0,8.5,0,0,998.7,1012.1
62,2023-09-11T01:01:00,0.9,西北西,1.7,西北西,22.9,97.7,0,0,0,8.5,0,0,998.7,1012.1
63,2023-09-11T01:02:00,0.8,西北西,1.7,西北西,22.9,97.6,0,0,0,8.5,0,0,998.7,1012.1
64,2023-09-11T01:03:00,0.7,西北西,1.7,西北西,23,97.7,0,0,0,8.5,0,0,998.7,1012.1
65,2023-09-11T01:04:00,0.6,西北西,1.7,西北西,23,97.7,0,0,0,8.5,0,0,998.7,1012.1
66,2023-09-11T01:05:00,0.5,北西,1.3,西北西,23.1,97.8,0,0,0,8.5,0,0,998.7,1012.1
67,2023-09-11T01:06:00,0.4,北北西,1.3,西北西,23,97.8,0,0,0,8.5,0,0,998.7,1012.1
68,2023-09-11T01:07:00,0.3,北北西,1,西北西,23.2,97.9,0,0,0,8.5,0,0,998.6,1012
69,2023-09-11T01:08:00,0.3,北北西,0.9,北北東,23.2,97.9,0,0,0,8.5,0,0,998.6,1012
70,2023-09-11T01:09:00,0.3,北北西,0.9,北北東,23,97.8,0,0,0,8.5,0,0,998.6,1012
71,2023-09-11T01:10:00,0.3,北北西,0.9,北北東,23.1,97.8,0,0,0,8.5,0,0,998.6,1012
72,2023-09-11T01:11:00,0.4,北北西,0.9,北北東,23.1,97.8,0,0,0,8.5,0,0,998.6,1012
73,2023-09-11T01:12:00,0.4,北北西,0.9,北北東,23.2,97.8,0,0,0,8.5,0,0,998.6,1012
74,2023-09-11T01:13:00,0.4,北北西,0.9,北北東,23.1,97.8,0,0,0,8.5,0,0,998.5,1011.9
75,2023-09-11T01:14:00,0.3,北西,0.9,北北東,23,97.8,0,0,0,8.5,0,0,998.5,1011.9
76,2023-09-11T01:15:00,0.4,北西,0.9,北西,23,97.8,0,0,0,8.5,0,0,998.5,1011.9
77,2023-09-11T01:16:00,0.4,北西,0.9,北西,23,97.8,0,0,0,8.5,0,0,998.5,1011.9
78,2023-09-11T01:17:00,0.4,北西,0.9,北西,23,97.8,0,0,0,8.5,0,0,998.5,1011.9
79,2023-09-11T01:18:00,0.5,北西,0.9,北西,23,97.8,0,0,0,8.5,0,0,998.4,1011.8
80,2023-09-11T01:19:00,0.5,北西,1.3,北西,23.1,97.9,0,0,0,8.5,0,0,998.4,1011.8
81,2023-09-11T01:20:00,0.5,北西,1.3,北西,23,97.8,0,0,0,8.5,0,0,998.4,1011.8
82,2023-09-11T01:21:00,0.6,北西,1.3,北西,23.1,97.9,0,0,0,8.5,0,0,998.4,1011.8
83,2023-09-11T01:22:00,0.6,北西,1.3,北西,23,97.9,0,0,0,8.5,0,0,998.4,1011.8
84,2023-09-11T01:23:00,0.7,北西,1.3,北西,23,97.9,0,0,0,8.5,0,0,998.3,1011.7
85,2023-09-11T01:24:00,0.8,北西,1.3,北西,23.1,97.9,0,0,0,8.5,0,0,998.4,1011.8
86,2023-09-11T01:25:00,0.8,北西,1.3,北西,23.1,98,0,0,0,8.5,0,0,998.3,1011.7
87,2023-09-11T01:26:00,0.8,北西,1.5,北,23.2,98,0,0,0,8.5,0,0,998.3,1011.7
88,2023-09-11T01:27:00,0.8,北西,1.5,北,23.2,98,0,0,0,8.5,0,0,998.3,1011.7
89,2023-09-11T01:28:00,0.9,北西,1.9,北北東,23.2,98,0,0,0,8.5,0,0,998.2,1011.6
90,2023-09-11T01:29:00,1,北北西,2.2,北北東,23.4,98,0,0,0,8.5,0,0,998.1,1011.5
91,2023-09-11T01:30:00,1.1,北北西,2.5,北北東,23.2,98,0,0,0,8.5,0,0,998.1,1011.5
92,2023-09-11T01:31:00,1.2,北,2.5,北北東,23.3,97.9,0,0,0,8.5,0,0,998.1,1011.5
93,2023-09-11T01:32:00,1.3,北,2.8,北北東,23.3,98,0,0,0,8.5,0,0,998.1,1011.5
94,2023-09-11T01:33:00,1.3,北,2.8,北北東,23.3,97.9,0,0,0,8.5,0,0,998.1,1011.5
95,2023-09-11T01:34:00,1.3,北北東,2.8,北北東,23.2,97.9,0,0,0,8.5,0,0,998.2,1011.6
96,2023-09-11T01:35:00,1.4,北北東,2.8,北北東,23.2,97.8,0,0,0,8.5,0,0,998.2,1011.6
97,2023-09-11T01:36:00,1.4,北北東,2.8,北北東,23.2,97.8,0,0,0,8.5,0,0,998.2,1011.6
98,2023-09-11T01:37:00,1.4,北北東,2.8,北北東,23.2,97.8,0,0,0,8.5,0,0,998.2,1011.6
99,2023-09-11T01:38:00,1.4,北北東,2.8,北北東,23.2,97.8,0,0,0,8.5,0,0,998.2,1011.6
100,2023-09-11T01:39:00,1.2,北北東,2.8,北北東,23.1,97.8,0,0,0,8.5,0,0,998.3,1011.7
101,2023-09-11T01:40:00,1.1,北北東,2.8,北北東,23.1,97.8,0,0,0,8.5,0,0,998.3,1011.7
102,2023-09-11T01:41:00,1,北北東,2.8,北北東,23.2,97.9,0,0,0,8.5,0,0,998.3,1011.7
103,2023-09-11T01:42:00,0.8,北北東,1.8,北北東,23,97.8,0,0,0,8.5,0,0,998.3,1011.7
104,2023-09-11T01:43:00,0.7,北北東,1.7,北東,23,97.8,0,0,0,8.5,0,0,998.4,1011.8
105,2023-09-11T01:44:00,0.6,北北東,1.7,北東,22.9,97.8,0,0,0,8.5,0,0,998.4,1011.8
106,2023-09-11T01:45:00,0.5,北北東,1.7,北東,22.9,97.8,0,0,0,8.5,0,0,998.4,1011.8
107,2023-09-11T01:46:00,0.5,北北東,1.3,北北東,23,97.8,0,0,0,8.5,0,0,998.4,1011.8
108,2023-09-11T01:47:00,0.5,北北東,1.3,北北東,23,97.9,0,0,0,8.5,0,0,998.4,1011.8
109,2023-09-11T01:48:00,0.4,北北東,1.1,北東,23,97.9,0,0,0,8.5,0,0,998.4,1011.8
110,2023-09-11T01:49:00,0.5,北東,1.4,東北東,23,97.9,0,0,0,8.5,0,0,998.4,1011.8
111,2023-09-11T01:50:00,0.5,北東,1.4,東北東,23.1,98,0,0,0,8.5,0,0,998.3,1011.7
112,2023-09-11T01:51:00,0.6,北東,1.4,東北東,23,97.9,0,0,0,8.5,0,0,998.4,1011.8
113,2023-09-11T01:52:00,0.6,北東,1.4,東北東,22.9,97.9,0,0,0,8.5,0,0,998.4,1011.8
114,2023-09-11T01:53:00,0.7,北東,1.8,東,22.9,97.9,0,0,0,8.5,0,0,998.4,1011.8
115,2023-09-11T01:54:00,0.8,東北東,1.8,東,22.9,98,0,0,0,8.5,0,0,998.4,1011.8
116,2023-09-11T01:55:00,0.9,東北東,1.8,東,22.8,97.9,0,0,0,8.5,0,0,998.5,1011.9
117,2023-09-11T01:56:00,0.8,東北東,1.8,東,22.8,97.9,0,0,0,8.5,0,0,998.6,1012
118,2023-09-11T01:57:00,0.9,東,2.2,南南西,22.7,97.9,0,0,0,8.5,0,0,998.7,1012.1
119,2023-09-11T01:58:00,1,東,3.1,南南西,22.7,98,0,0,0,8.5,0,0,998.8,1012.2
120,2023-09-11T01:59:00,1.2,東南東,4.1,南,22.7,98,0,0,0,8.5,0,0,998.9,1012.3
121,2023-09-11T02:00:00,1.5,南東,4.8,南,22.7,98,0,0,0,8.5,0,0,998.9,1012.3
122,2023-09-11T02:01:00,1.9,南南東,7.4,南南西,22.7,98.1,0,0,0,8.5,0,0,999,1012.4
123,2023-09-11T02:02:00,2.4,南南東,7.4,南南西,22.7,98.1,0,0,0,8.5,0,0,999,1012.4
124,2023-09-11T02:03:00,2.8,南,7.9,南南西,22.6,98.1,0,0,0,8.5,0,0,999,1012.4
125,2023-09-11T02:04:00,3.1,南,7.9,南南西,22.6,98.1,0,0,0,8.5,0,0,998.9,1012.3
126,2023-09-11T02:05:00,3.1,南南西,7.9,南南西,22.6,98.1,0,0,0,8.5,0,0,998.9,1012.3
127,2023-09-11T02:06:00,3.1,南南西,7.9,南南西,22.6,98.3,0,0,0,8.5,0,0,998.9,1012.3
128,2023-09-11T02:07:00,3.1,南南西,7.9,南南西,22.7,98.3,0,0,0,8.5,0,0,998.9,1012.3
129,2023-09-11T02:08:00,3,南,7.9,南南西,22.7,98.3,0,0,0,8.5,0,0,998.9,1012.3
130,2023-09-11T02:09:00,2.8,南,7.9,南南西,22.7,98.4,0,0,0,8.5,0,0,999,1012.4
131,2023-09-11T02:10:00,2.6,南,7.9,南南西,22.7,98.3,0,0,0,8.5,0,0,999,1012.4
132,2023-09-11T02:11:00,2.2,南南東,7.9,南南西,22.7,98.3,0,0,0,8.5,0,0,999,1012.4
133,2023-09-11T02:12:00,1.7,南南東,7.9,南南西,22.7,98.4,0,0,0,8.5,0,0,999,1012.4
134,2023-09-11T02:13:00,1.3,南東,6.1,南,22.6,98.3,0,0,0,8.5,0,0,999,1012.4
135,2023-09-11T02:14:00,1,南東,3.1,西南西,22.6,98.4,0,0,0,8.5,0,0,999,1012.4
136,2023-09-11T02:15:00,1,東南東,2.7,東南東,22.6,98.4,0,0,0,8.5,0,0,999,1012.4
137,2023-09-11T02:16:00,1.1,東南東,2.7,東南東,22.6,98.4,1,1,1,9.5,0,0,999,1012.4
138,2023-09-11T02:17:00,1.1,東南東,2.7,東南東,22.6,98.4,1.5,1.5,1.5,10,0,0,998.9,1012.3
139,2023-09-11T02:18:00,1.1,東南東,2.7,東南東,22.6,98.5,1.5,1.5,1.5,10,0,0,999,1012.4
140,2023-09-11T02:19:00,1,東南東,2.7,東南東,22.6,98.5,1.5,1.5,1.5,10,0,0,999,1012.4
141,2023-09-11T02:20:00,1,東南東,2.7,東南東,22.6,98.4,1.5,1.5,1.5,10,0,0,998.9,1012.3
142,2023-09-11T02:21:00,0.9,東南東,2.7,東南東,22.6,98.4,1.5,1.5,1.5,10,0,0,998.9,1012.3
143,2023-09-11T02:22:00,0.9,東南東,2.7,東南東,22.6,98.5,1.5,1.5,1.5,10,0,0,998.8,1012.2
144,2023-09-11T02:23:00,0.9,東南東,2.7,東南東,22.6,98.5,1.5,1.5,1.5,10,0,0,998.8,1012.2
145,2023-09-11T02:24:00,0.8,東南東,2.7,東南東,22.7,98.6,1.5,1.5,1.5,10,0,0,998.9,1012.3
146,2023-09-11T02:25:00,0.7,東南東,2.5,東,22.7,98.6,1.5,1.5,1.5,10,0,0,998.9,1012.3
147,2023-09-11T02:26:00,0.6,東南東,1.9,東北東,22.6,98.5,0.5,1.5,1.5,10,0,0,998.9,1012.3
148,2023-09-11T02:27:00,0.5,南東,1.7,東,22.6,98.5,0,1.5,1.5,10,0,0,998.8,1012.2
149,2023-09-11T02:28:00,0.4,南東,1.7,東,22.7,98.6,0,1.5,1.5,10,0,0,998.8,1012.2
150,2023-09-11T02:29:00,0.4,南東,1.7,東,22.8,98.7,0,1.5,1.5,10,0,0,998.8,1012.2
151,2023-09-11T02:30:00,0.4,南南東,1.7,東,23,98.8,0,1.5,1.5,10,0,0,998.8,1012.2
152,2023-09-11T02:31:00,0.3,南,1.7,東,23,98.7,0,1.5,1.5,10,0,0,998.8,1012.2
153,2023-09-11T02:32:00,0.3,南南西,1.7,東,22.8,98.7,0,1.5,1.5,10,0,0,998.7,1012.1
154,2023-09-11T02:33:00,0.3,西南西,1.6,西,23.1,98.8,0,1.5,1.5,10,0,0,998.7,1012.1
155,2023-09-11T02:34:00,0.4,西南西,1.6,西,23.2,98.9,0,1.5,1.5,10,0,0,998.7,1012.1
156,2023-09-11T02:35:00,0.5,西,1.6,西,23.1,98.8,0,1.5,1.5,10,0,0,998.7,1012.1
157,2023-09-11T02:36:00,0.6,西北西,1.6,西,23,98.6,0,1.5,1.5,10,0,0,998.7,1012.1
158,2023-09-11T02:37:00,0.7,西北西,1.6,西,23.1,98.7,0,1.5,1.5,10,0,0,998.6,1012
159,2023-09-11T02:38:00,0.7,西北西,1.6,西,23.1,98.7,0,1.5,1.5,10,0,0,998.6,1012
160,2023-09-11T02:39:00,0.7,北西,1.6,西,23.1,98.6,0,1.5,1.5,10,0,0,998.6,1012
161,2023-09-11T02:40:00,0.8,北西,1.6,西,23.1,98.7,0,1.5,1.5,10,0,0,998.6,1012
162,2023-09-11T02:41:00,0.7,北西,1.6,西,23.2,98.8,0,1.5,1.5,10,0,0,998.6,1012
163,2023-09-11T02:42:00,0.8,北北西,1.6,西,23.1,98.7,0,1.5,1.5,10,0,0,998.6,1012
164,2023-09-11T02:43:00,0.7,北北西,1.4,西北西,23,98.6,0,1.5,1.5,10,0,0,998.6,1012
165,2023-09-11T02:44:00,0.7,北,1.3,北西,23.1,98.6,0,1.5,1.5,10,0,0,998.6,1012
166,2023-09-11T02:45:00,0.6,北,1.3,北西,23.1,98.7,0,1.5,1.5,10,0,0,998.6,1012
167,2023-09-11T02:46:00,0.5,北北東,1.1,北西,23,98.6,0,1.5,1.5,10,0,0,998.6,1012
168,2023-09-11T02:47:00,0.4,北北東,1,北北東,22.8,98.5,0,1.5,1.5,10,0,0,998.6,1012
169,2023-09-11T02:48:00,0.4,北東,1,北北東,22.8,98.5,0,1.5,1.5,10,0,0,998.6,1012
170,2023-09-11T02:49:00,0.4,北東,1,北北東,22.8,98.5,0,1.5,1.5,10,0,0,998.6,1012
171,2023-09-11T02:50:00,0.4,北東,1,北北東,22.8,98.6,0,1.5,1.5,10,0,0,998.6,1012
172,2023-09-11T02:51:00,0.4,北東,1,北北東,22.9,98.6,0,1.5,1.5,10,0,0,998.6,1012
173,2023-09-11T02:52:00,0.4,東北東,1,北北東,22.9,98.7,0,1.5,1.5,10,0,0,998.6,1012
174,2023-09-11T02:53:00,0.3,東北東,0.9,東,22.9,98.6,0,1.5,1.5,10,0,0,998.6,1012
175,2023-09-11T02:54:00,0.2,静穏,0.9,東,22.9,98.6,0,1.5,1.5,10,0,0,998.6,1012
176,2023-09-11T02:55:00,0.2,静穏,0.9,東,23,98.7,0,1.5,1.5,10,0,0,998.6,1012
177,2023-09-11T02:56:00,0.3,東北東,0.9,東,23,98.7,0,1.5,1.5,10,0,0,998.5,1011.9
178,2023-09-11T02:57:00,0.3,東北東,0.9,東,22.9,98.7,0,1.5,1.5,10,0,0,998.5,1011.9
179,2023-09-11T02:58:00,0.3,北東,0.9,東,22.9,98.6,0,1.5,1.5,10,0,0,998.5,1011.9
180,2023-09-11T02:59:00,0.2,静穏,0.8,北北東,22.9,98.6,0,1.5,1.5,10,0,0,998.5,1011.9
181,2023-09-11T03:00:00,0.2,静穏,0.8,北北東,22.8,98.6,0,1.5,1.5,10,0,0,998.5,1011.9
182,2023-09-11T03:01:00,0.1,静穏,0.8,北北東,22.8,98.5,0,1.5,1.5,10,0,0,998.5,1011.9
183,2023-09-11T03:02:00,0.1,静穏,0.8,北北東,22.7,98.5,0,1.5,1.5,10,0,0,998.5,1011.9
184,2023-09-11T03:03:00,0.1,静穏,0.8,北北東,22.7,98.6,0,1.5,1.5,10,0,0,998.5,1011.9
185,2023-09-11T03:04:00,0.1,静穏,0.8,北北東,22.8,98.6,0,1.5,1.5,10,0,0,998.4,1011.8
186,2023-09-11T03:05:00,0.1,静穏,0.8,北北東,22.8,98.7,0,1.5,1.5,10,0,0,998.4,1011.8
187,2023-09-11T03:06:00,0.1,静穏,0.5,北東,22.9,98.7,0,1.5,1.5,10,0,0,998.4,1011.8
188,2023-09-11T03:07:00,0.1,静穏,0.3,東北東,22.9,98.7,0,1.5,1.5,10,0,0,998.4,1011.8
189,2023-09-11T03:08:00,0.1,静穏,0.3,東北東,22.9,98.7,0,1.5,1.5,10,0,0,998.4,1011.8
190,2023-09-11T03:09:00,0.1,静穏,0.6,西,22.8,98.6,0,1.5,1.5,10,0,0,998.4,1011.8
191,2023-09-11T03:10:00,0.1,静穏,0.6,西,22.9,98.7,0,1.5,1.5,10,0,0,998.4,1011.8
192,2023-09-11T03:11:00,0.1,静穏,0.6,西,22.8,98.7,0,1.5,1.5,10,0,0,998.4,1011.8
193,2023-09-11T03:12:00,0.2,静穏,0.7,北西,22.9,98.7,0,1.5,1.5,10,0,0,998.4,1011.8
194,2023-09-11T03:13:00,0.3,北北西,0.7,北西,22.9,98.7,0,1.5,1.5,10,0,0,998.4,1011.8
195,2023-09-11T03:14:00,0.3,北北西,0.7,北西,22.9,98.7,0,1.5,1.5,10,0,0,998.4,1011.8
196,2023-09-11T03:15:00,0.4,北西,0.9,北西,22.8,98.7,0,1.5,1.5,10,0,0,998.4,1011.8
197,2023-09-11T03:16:00,0.4,北西,0.9,北西,22.9,98.7,0,0.5,1.5,10,0,0,998.4,1011.8
198,2023-09-11T03:17:00,0.4,北西,0.9,北西,22.9,98.7,0,0,1.5,10,0,0,998.4,1011.8
199,2023-09-11T03:18:00,0.4,西北西,0.9,北西,22.9,98.7,0,0,1.5,10,0,0,998.4,1011.8
200,2023-09-11T03:19:00,0.4,西北西,0.9,北西,22.8,98.7,0,0,1.5,10,0,0,998.4,1011.8
201,2023-09-11T03:20:00,0.4,西北西,0.9,北西,22.8,98.6,0,0,1.5,10,0,0,998.4,1011.8
202,2023-09-11T03:21:00,0.4,西北西,0.9,北西,22.8,98.7,0,0,1.5,10,0,0,998.4,1011.8
203,2023-09-11T03:22:00,0.4,西北西,0.9,北西,22.9,98.7,0,0,1.5,10,0,0,998.3,1011.7
204,2023-09-11T03:23:00,0.3,西北西,0.9,北西,22.9,98.8,0,0,1.5,10,0,0,998.3,1011.7
205,2023-09-11T03:24:00,0.3,西北西,0.9,北西,22.9,98.8,0,0,1.5,10,0,0,998.3,1011.7
206,2023-09-11T03:25:00,0.3,西北西,0.7,西北西,22.9,98.7,0,0,1.5,10,0,0,998.3,1011.7
207,2023-09-11T03:26:00,0.3,西北西,0.7,西北西,22.9,98.7,0,0,1.5,10,0,0,998.3,1011.7
208,2023-09-11T03:27:00,0.3,西,0.7,西北西,22.9,98.8,0,0,1.5,10,0,0,998.3,1011.7
209,2023-09-11T03:28:00,0.3,西,0.7,西北西,22.8,98.7,0,0,1.5,10,0,0,998.3,1011.7
210,2023-09-11T03:29:00,0.3,西北西,0.7,西北西,22.9,98.8,0,0,1.5,10,0,0,998.2,1011.6
211,2023-09-11T03:30:00,0.4,西北西,0.7,西北西,22.8,98.7,0,0,1.5,10,0,0,998.3,1011.7
212,2023-09-11T03:31:00,0.4,西北西,0.8,西南西,22.7,98.7,0,0,1.5,10,0,0,998.3,1011.7
213,2023-09-11T03:32:00,0.5,西,0.8,西南西,22.7,98.7,0,0,1.5,10,0,0,998.3,1011.7
214,2023-09-11T03:33:00,0.5,西,1.1,南西,22.6,98.6,0,0,1.5,10,0,0,998.3,1011.7
215,2023-09-11T03:34:00,0.6,西,1.4,西南西,22.6,98.6,0,0,1.5,10,0,0,998.3,1011.7
216,2023-09-11T03:35:00,0.6,西,1.4,西南西,22.5,98.7,0,0,1.5,10,0,0,998.4,1011.8
217,2023-09-11T03:36:00,0.7,西,1.7,西,22.5,98.7,0,0,1.5,10,0,0,998.4,1011.8
218,2023-09-11T03:37:00,0.8,西,1.8,西南西,22.5,98.7,0,0,1.5,10,0,0,998.4,1011.8
219,2023-09-11T03:38:00,0.9,西,1.9,西,22.5,98.7,0,0,1.5,10,0,0,998.4,1011.8
220,2023-09-11T03:39:00,1,西南西,2,西,22.6,98.7,0,0,1.5,10,0,0,998.4,1011.8
221,2023-09-11T03:40:00,1.1,西南西,2,西,22.6,98.8,0,0,1.5,10,0,0,998.4,1011.8
222,2023-09-11T03:41:00,1.2,西南西,2,西,22.7,98.8,0,0,1.5,10,0,0,998.4,1011.8
223,2023-09-11T03:42:00,1.3,西南西,2,西,22.5,98.8,0,0,1.5,10,0,0,998.4,1011.8
224,2023-09-11T03:43:00,1.3,西南西,2,西,22.5,98.7,0,0,1.5,10,0,0,998.4,1011.8
225,2023-09-11T03:44:00,1.3,西南西,2,西,22.5,98.8,0,0,1.5,10,0,0,998.4,1011.8
226,2023-09-11T03:45:00,1.3,西南西,2,西,22.5,98.7,0,0,1.5,10,0,0,998.4,1011.8
227,2023-09-11T03:46:00,1.3,西,2,西,22.6,98.8,0,0,1.5,10,0,0,998.3,1011.7
228,2023-09-11T03:47:00,1.2,西,2,西,22.7,98.9,0,0,1.5,10,0,0,998.3,1011.7
229,2023-09-11T03:48:00,1.1,西,2,西,22.7,98.9,0,0,1.5,10,0,0,998.3,1011.7
230,2023-09-11T03:49:00,1,西,2,西,22.6,98.8,0,0,1.5,10,0,0,998.3,1011.7
231,2023-09-11T03:50:00,0.9,西,2,西,22.7,98.9,0,0,1.5,10,0,0,998.3,1011.7
232,2023-09-11T03:51:00,0.8,西,1.6,西,22.7,98.8,0,0,1.5,10,0,0,998.4,1011.8
233,2023-09-11T03:52:00,0.7,西南西,1.6,西,22.6,98.8,0,0,1.5,10,0,0,998.4,1011.8
234,2023-09-11T03:53:00,0.7,西南西,1.4,西南西,22.7,98.8,0,0,1.5,10,0,0,998.4,1011.8
235,2023-09-11T03:54:00,0.7,西南西,1.4,西南西,22.5,98.8,0,0,1.5,10,0,0,998.4,1011.8
236,2023-09-11T03:55:00,0.7,西南西,1.4,西南西,22.4,98.7,0,0,1.5,10,0,0,998.4,1011.9
237,2023-09-11T03:56:00,0.7,西南西,1.8,西南西,22.5,98.7,0,0,1.5,10,0,0,998.4,1011.8
238,2023-09-11T03:57:00,0.9,西南西,1.8,西南西,22.4,98.7,0,0,1.5,10,0,0,998.4,1011.9
239,2023-09-11T03:58:00,1,西南西,2.1,西南西,22.4,98.7,0,0,1.5,10,0,0,998.4,1011.9
240,2023-09-11T03:59:00,1.1,西南西,2.2,西,22.4,98.8,0,0,1.5,10,0,0,998.4,1011.9
241,2023-09-11T04:00:00,1.2,西南西,2.2,西,22.4,98.8,0,0,1.5,10,0,0,998.4,1011.9
242,2023-09-11T04:01:00,1.3,西南西,2.2,西,22.4,98.8,0,0,1.5,10,0,0,998.3,1011.7
243,2023-09-11T04:02:00,1.4,西南西,2.2,西,22.4,98.8,0,0,1.5,10,0,0,998.3,1011.7
244,2023-09-11T04:03:00,1.4,西南西,2.2,西,22.4,98.8,0,0,1.5,10,0,0,998.3,1011.7
245,2023-09-11T04:04:00,1.4,西,2.2,西,22.4,98.8,0,0,1.5,10,0,0,998.3,1011.7
246,2023-09-11T04:05:00,1.5,西,2.2,西,22.4,98.8,0,0,1.5,10,0,0,998.3,1011.7
247,2023-09-11T04:06:00,1.5,西,2.2,西,22.4,98.8,0,0,1.5,10,0,0,998.2,1011.6
248,2023-09-11T04:07:00,1.4,西,2.2,西,22.4,98.8,0,0,1.5,10,0,0,998.2,1011.6
249,2023-09-11T04:08:00,1.5,西,2.2,西,22.4,98.8,0,0,1.5,10,0,0,998.2,1011.6
250,2023-09-11T04:09:00,1.5,西,2.4,西,22.4,98.8,0,0,1.5,10,0,0,998.1,1011.5
251,2023-09-11T04:10:00,1.5,西,2.4,西,22.3,98.8,0,0,1.5,10,0,0,998.2,1011.7
252,2023-09-11T04:11:00,1.6,西,2.4,西,22.3,98.8,0,0,1.5,10,0,0,998.2,1011.7
253,2023-09-11T04:12:00,1.7,西,2.6,西,22.3,98.8,0,0,1.5,10,0,0,998.2,1011.7
254,2023-09-11T04:13:00,1.7,西,2.6,西,22.3,98.8,0,0,1.5,10,0,0,998.2,1011.7
255,2023-09-11T04:14:00,1.8,西,2.7,西,22.3,98.8,0,0,1.5,10,0,0,998.2,1011.7
256,2023-09-11T04:15:00,1.9,西,2.8,西,22.3,98.8,0,0,1.5,10,0,0,998.2,1011.7
257,2023-09-11T04:16:00,2,西,3.4,西,22.3,98.8,0,0,1.5,10,0,0,998.2,1011.7
258,2023-09-11T04:17:00,2.1,西,3.4,西,22.3,98.8,0,0,1.5,10,0,0,998.2,1011.7
259,2023-09-11T04:18:00,2.2,西,3.4,西,22.2,98.8,0,0,1.5,10,0,0,998.2,1011.7
260,2023-09-11T04:19:00,2.3,西,3.4,西,22.2,98.8,0,0,1.5,10,0,0,998.2,1011.7
261,2023-09-11T04:20:00,2.3,西,3.5,西,22.2,98.8,0,0,1.5,10,0,0,998.3,1011.8
262,2023-09-11T04:21:00,2.3,西,3.5,西,22.2,98.8,0,0,1.5,10,0,0,998.3,1011.8
263,2023-09-11T04:22:00,2.3,西,3.5,西,22.2,98.8,0,0,1.5,10,0,0,998.3,1011.8
264,2023-09-11T04:23:00,2.3,西,3.5,西,22.2,98.8,0,0,1.5,10,0,0,998.3,1011.8
265,2023-09-11T04:24:00,2.3,西,3.5,西,22.2,98.8,0,0,1.5,10,0,0,998.3,1011.8
266,2023-09-11T04:25:00,2.2,西,3.5,西,22.2,98.9,0,0,1.5,10,0,0,998.3,1011.8
267,2023-09-11T04:26:00,2.1,西,3.5,西,22.2,98.9,0,0,1.5,10,0,0,998.3,1011.8
268,2023-09-11T04:27:00,2,西,3.5,西,22.2,98.9,0,0,1.5,10,0,0,998.3,1011.8
269,2023-09-11T04:28:00,1.8,西,3.5,西,22.2,98.9,0,0,1.5,10,0,0,998.3,1011.8
270,2023-09-11T04:29:00,1.6,西,3.5,西,22.2,98.9,0,0,1.5,10,0,0,998.2,1011.7
271,2023-09-11T04:30:00,1.6,西,2.7,西,22.2,98.9,0,0,1.5,10,0,0,998.2,1011.7
272,2023-09-11T04:31:00,1.5,西,2.5,西,22.2,98.9,0,0,1.5,10,0,0,998.2,1011.7
273,2023-09-11T04:32:00,1.5,西,2.4,西,22.2,98.9,0,0,1.5,10,0,0,998.2,1011.7
274,2023-09-11T04:33:00,1.5,西,2.5,西,22.2,98.9,0,0,1.5,10,0,0,998.1,1011.6
275,2023-09-11T04:34:00,1.5,西,2.6,西,22.2,98.9,0,0,1.5,10,0,0,998.1,1011.6
276,2023-09-11T04:35:00,1.6,西,2.6,西,22.2,98.9,0,0,1.5,10,0,0,998.1,1011.6
277,2023-09-11T04:36:00,1.7,西,2.6,西,22.2,98.9,0,0,1.5,10,0,0,998.1,1011.6
278,2023-09-11T04:37:00,1.7,西,2.6,西,22.2,98.9,0,0,1.5,10,0,0,998.1,1011.6
279,2023-09-11T04:38:00,1.9,西,2.8,西,22.2,98.9,0,0,1.5,10,0,0,998.1,1011.6
280,2023-09-11T04:39:00,2,西,2.8,西,22.2,98.9,0,0,1.5,10,0,0,998.1,1011.6
281,2023-09-11T04:40:00,2,西,2.8,西,22.2,98.9,0,0,1.5,10,0,0,998,1011.5
282,2023-09-11T04:41:00,2,西,2.8,西,22.2,98.9,0,0,1.5,10,0,0,998,1011.5
283,2023-09-11T04:42:00,2,西,2.8,西,22.1,98.9,0,0,1.5,10,0,0,998,1011.5
284,2023-09-11T04:43:00,1.9,西,2.8,西,22.2,98.9,0,0,1.5,10,0,0,998,1011.5
285,2023-09-11T04:44:00,1.8,西,2.8,西,22.2,98.9,0,0,1.5,10,0,0,998,1011.5
286,2023-09-11T04:45:00,1.8,西,2.8,西,22.2,98.9,0,0,1.5,10,0,0,998,1011.5
287,2023-09-11T04:46:00,1.7,西北西,2.8,西,22.3,99,0,0,1.5,10,0,0,998,1011.4
288,2023-09-11T04:47:00,1.6,西北西,2.8,西,22.3,99,0,0,1.5,10,0,0,998,1011.4
289,2023-09-11T04:48:00,1.5,西北西,2.7,西,22.3,99,0,0,1.5,10,0,0,998.1,1011.6
290,2023-09-11T04:49:00,1.5,西北西,2.7,西,22.5,99.1,0,0,1.5,10,0,0,998.1,1011.5
291,2023-09-11T04:50:00,1.3,西北西,2.4,西,22.3,99,0,0,1.5,10,0,0,998.2,1011.7
292,2023-09-11T04:51:00,1.2,西北西,1.9,西,22.3,99,0,0,1.5,10,0,0,998.2,1011.7
293,2023-09-11T04:52:00,1.1,西北西,1.7,北西,22.2,98.9,0,0,1.5,10,0,0,998.2,1011.7
294,2023-09-11T04:53:00,1.1,西,1.7,北西,22.3,98.9,0,0,1.5,10,0,0,998.2,1011.7
295,2023-09-11T04:54:00,1.1,西,1.8,西,22.4,98.9,0,0,1.5,10,0,0,998.2,1011.6
296,2023-09-11T04:55:00,1.1,西,2,西,22.4,99,0,0,1.5,10,0,0,998.2,1011.6
297,2023-09-11T04:56:00,1.1,西,2,西,22.4,98.9,0,0,1.5,10,0,0,998.2,1011.6
298,2023-09-11T04:57:00,1.1,西,2,西,22.4,98.9,0,0,1.5,10,0,0,998.2,1011.6
299,2023-09-11T04:58:00,1.1,西,2,西,22.4,98.9,0,0,1.5,10,0,0,998.2,1011.6
300,2023-09-11T04:59:00,1.1,西,2,西,22.3,98.9,0,0,1.5,10,0,0,998.2,1011.7
301,2023-09-11T05:00:00,1.2,西,2,西,22.3,98.8,0,0,1.5,10,0,0,998.2,1011.7
302,2023-09-11T05:01:00,1.3,西北西,2.3,西北西,22.3,98.9,0,0,1.5,10,0,0,998.2,1011.7
303,2023-09-11T05:02:00,1.3,西北西,2.3,西北西,22.2,98.8,0,0,1.5,10,0,0,998.2,1011.7
304,2023-09-11T05:03:00,1.4,西北西,2.3,西北西,22.3,98.9,0,0,1.5,10,0,0,998.2,1011.7
305,2023-09-11T05:04:00,1.4,西北西,2.3,西北西,22.3,98.8,0,0,1.5,10,0,0,998.2,1011.7
306,2023-09-11T05:05:00,1.4,西北西,2.3,西北西,22.3,98.9,0,0,1.5,10,0,0,998.2,1011.7
307,2023-09-11T05:06:00,1.4,西北西,2.3,西北西,22.3,98.8,0,0,1.5,10,0,0,998.2,1011.7
308,2023-09-11T05:07:00,1.4,西北西,2.3,西北西,22.2,98.8,0,0,1.5,10,0,0,998.3,1011.8
309,2023-09-11T05:08:00,1.4,西北西,2.3,西北西,22.3,98.8,0,0,1.5,10,0,0,998.3,1011.8
310,2023-09-11T05:09:00,1.4,西北西,2.3,西北西,22.5,98.9,0,0,1.5,10,0,0,998.3,1011.7
311,2023-09-11T05:10:00,1.3,西北西,2.3,西北西,22.5,98.9,0,0,1.5,10,0,0,998.3,1011.7
312,2023-09-11T05:11:00,1.2,西北西,2.1,西北西,22.4,98.9,0,0,1.5,10,0,0,998.3,1011.7
313,2023-09-11T05:12:00,1.2,西北西,2.1,西北西,22.4,98.8,0,0,1.5,10,0,0,998.4,1011.9
314,2023-09-11T05:13:00,1.1,西北西,2.1,西北西,22.3,98.8,0,0,1.5,10,0,0,998.4,1011.9
315,2023-09-11T05:14:00,1.1,西北西,2.1,西北西,22.2,98.7,0,0,1.5,10,0,0,998.4,1011.9
316,2023-09-11T05:15:00,1.1,西,2.1,西北西,22.1,98.7,0,0,1.5,10,0,0,998.4,1011.9
317,2023-09-11T05:16:00,1.1,西,2.3,西,22.1,98.6,0,0,1.5,10,0,0,998.4,1011.9
318,2023-09-11T05:17:00,1.2,西,2.3,西,22.1,98.6,0,0,1.5,10,0,0,998.4,1011.9